Regional Weather Roundup
Issued by NWS

Home | Current Version | Previous Version | Graphics & Text | Print | Product List | Glossary On
Versions: 1 2 3 4 5 6 7 8 9 10 11 12 13 14 15 16 17 18 19 20 21 22 23 24 25 26 27 28 29 30 31 32 33 34 35 36 37 38 39 40 41 42 43 44 45 46 47 48 49 50
000
ASUS45 KPSR 282310
RWRAZ

ARIZONA REGIONAL HOURLY WEATHER ROUNDUP
NATIONAL WEATHER SERVICE PHOENIX AZ
400 PM MST THU AUG 28 2014

NOTE: FAIR INDICATES FEW OR NO CLOUDS BELOW 12,000 FEET WITH NO
SIGNIFICANT WEATHER AND/OR OBSTRUCTIONS TO VISIBILITY.

AZZ001>003-036-290000-
NORTHWEST ARIZONA

CITY           SKY/WX    TMP DP  RH WIND       PRES   REMARKS
BULLHEAD CITY  SUNNY    106  34   8 NW9       29.81F
KINGMAN        SUNNY     94  32  11 MISG      30.03F
$$

AZZ004>008-015-016-018-290000-
NORTH CENTRAL ARIZONA

CITY           SKY/WX    TMP DP  RH WIND       PRES   REMARKS
GRAND CANYON   SUNNY     77  37  23 N7        30.27F
WILLIAMS       SUNNY     75  37  25 N10G17    30.34F
PRESCOTT       SUNNY     84  40  21 N8        30.15F
FLAGSTAFF      MOSUNNY   73  41  31 E3        30.29F
PAYSON         SUNNY     84  45  24 NW9       30.15F
PAGE           SUNNY     86  38  18 SE3       30.10F
$$

AZZ009>014-017-290000-
NORTHEAST ARIZONA

CITY           SKY/WX    TMP DP  RH WIND       PRES   REMARKS
WINSLOW        SUNNY     85  42  22 NW9G20    30.14F
SAINT JOHNS    SUNNY     81  42  25 VRB3      30.16F
SHOW LOW       SUNNY     73  37  27 N12       30.26F
$$

AZZ023-290000-
GREATER PHOENIX AREA

CITY           SKY/WX    TMP DP  RH WIND       PRES   REMARKS
PHOENIX        MOSUNNY  105  43  12 NW6G16    29.79F HX 100
BUCKEYE          N/A    102  48  16 S6        29.81F
GLENDALE       MOSUNNY  106  39  10 W5        29.81F HX 100
LUKE AFB       NOT AVBL
DEER VALLEY    SUNNY    106  35   8 N14G21    29.82F
SCOTTSDALE     SUNNY    102  45  14 CALM      29.83F
MESA-FALCON    MOSUNNY  102  48  16 NW9       29.82F
MESA-GATEWAY   MOSUNNY  100  43  14 NW10G21   29.85F
CHANDLER       MOSUNNY  102  46  15 NE6       29.82F
$$

AZZ027-028-290000-
SOUTHWEST MARICOPA COUNTY AND PINAL COUNTY

CITY           SKY/WX    TMP DP  RH WIND       PRES   REMARKS
CASA GRANDE    SUNNY    102  46  15 W5        29.85F
GILA BEND      CLEAR    104  39  11 E6G15     29.81F
$$

AZZ503-504-507>509-290000-
SOUTHEAST ARIZONA

CITY           SKY/WX    TMP DP  RH WIND       PRES   REMARKS
TUCSON         SUNNY     97  48  18 NW12      29.93F
DAVIS-MONTHAN  SUNNY     96  51  22 W7        29.91F
RYAN FIELD       N/A     97  50  20 N9G16     29.92F
NOGALES        SUNNY     90  49  24 W7        30.03F
SIERRA VISTA   MOSUNNY   86  48  26 CALM      30.10F
DOUGLAS        SUNNY     91  46  21 N9        30.04F
SAFFORD        SUNNY     95  43  16 W16       29.93F
$$

AZZ020-021-025-026-031-290000-
SOUTHWEST ARIZONA

CITY           SKY/WX    TMP DP  RH WIND       PRES   REMARKS
YUMA           SUNNY    111  32   6 W9        29.75F HX 103
$$

CAZ031-033-041-043-047-048-061-290000-
SOUTHERN CALIFORNIA

CITY           SKY/WX    TMP DP  RH WIND       PRES   REMARKS
DOWNTOWN L.A.  SUNNY     83  52  34 VRB7      29.90F
L.A. AIRPORT   MOSUNNY   80  54  40 W16       29.90F
SAN DIEGO      SUNNY     82  61  48 NW12      29.92F
BURBANK        SUNNY     99  40  13 SW12G20   29.90F
ONTARIO        SUNNY     98  49  18 W18       29.90F
RIVERSIDE      SUNNY     96  53  23 W18G28    29.89F
PALM SPRINGS   SUNNY    110  33   7 CALM      29.78F HX 102
EL CENTRO NAS  MOSUNNY  110  33   7 N5        29.74F HX 102
IMPERIAL       SUNNY    108  37   9 CALM      29.74F HX 101
BLYTHE         SUNNY    107  35   8 E8        29.78F HX 100
NEEDLES        SUNNY    108  31   7 N7        29.82F HX 100
$$

NVZ020-UTZ003-290000-
SOUTHERN NEVADA-UTAH

CITY           SKY/WX    TMP DP  RH WIND       PRES   REMARKS
LAS VEGAS      SUNNY    101  31   8 CALM      29.88F
SALT LAKE CITY MOSUNNY   84  37  18 NW7       30.11F
$$

NMZ009-TXZ055-290000-
NEW MEXICO-WEST TEXAS

CITY           SKY/WX    TMP DP  RH WIND       PRES   REMARKS
ALBUQUERQUE    MOSUNNY   82  38  20 NW15      30.11F
EL PASO        MOSUNNY   91  49  23 N9        29.98F
$$


........................KEY........................
SKY/WX - SKY CONDITION/WEATHER
TMP    - TEMPERATURE IN FAHRENHEIT
DP     - DEW POINT IN FAHRENHEIT
RH     - RELATIVE HUMIDITY IN PERCENT
WIND   - DIRECTION AND SPEED IN MILES PER HOUR (MPH)
VRB    - VARIABLE WIND DIRECTION
PRES   - MEAN SEA LEVEL PRESSURE IN INCHES OF MERCURY
         F - FALLING PRESSURE   R - RISING PRESSURE
         S - STEADY PRESSURE
VSB    - VISIBILITY IN MILES
HX     - HEAT INDEX IN FAHRENHEIT
WCI    - WIND CHILL INDEX IN FAHRENHEIT
TC     - TEMPERATURE IN CELSIUS WHICH IS ALSO KNOWN AS
         TEMPERATURE IN CENTIGRADE
AFB    - AIR FORCE BASE
         LUKE AFB IS LUKE AIR FORCE BASE
         DAVIS-MONTHAN IS DAVIS-MONTHAN AIR FORCE BASE
NAS    - NAVAL AIR STATION
         EL CENTRO NAS IS EL CENTRO NAVAL AIR STATION
N/A    - NOT AVAILABLE



USA.gov is the U.S. government's official web portal to all federal, state and local government web resources and services.